Flag for U.S.A. Weather past 2 weeks in Augusta, Georgia, U.S.A.

Now
57 °F

Mostly cloudy.


Feels Like: 56 °F
Forecast: 51 / 65 °F
Wind: 6 mph from Southeast

Location: Daniel Field

Current Time: Dec 28, 2014 at 9:41:16 AM

Latest Report: Dec 28, 2014 at 8:53 AM


Visibility: 8 mi

Pressure: 30.12 "Hg

Humidity: 90%

Dew point: 54 °F

Location of AugustaLocation

Historic Weather in Augusta — Graph

°F

Augusta temperature yesterday

Maximum temperature yesterday: 65 °F (at 2:53 PM)
Minimum temperature yesterday: 40 °F (at 6:53 AM)
Average temperature yesterday: 53 °F

Past Weeks' High & Low Weather Summary

 TemperatureHumidityPressure
High70 °F (Dec 14, 3:53 PM)100% (Dec 22, 7:53 AM)30.37 "Hg (Dec 22, 7:53 AM)
Low37 °F (Dec 13, 7:53 AM)19% (Dec 13, 1:53 PM)29.67 "Hg (Dec 24, 1:53 PM)
Average52 °F71%30.09 "Hg
* Reported Dec 13 7:53 AM — Dec 28 7:53 AM, Augusta, Weather by CustomWeather, © 2014

Note: Actual official high and low records may vary slightly from our data, if they occured in-between our weather recording intervals... More about our weather records

Advertising

Augusta weather history for previous 24 hours

 ConditionsComfort  
Time TempWeatherWind HumidityBarometerVisibility
7:53 AM
Dec 28
55 °FOvercast.No wind93%30.13 "Hg7 mi
6:53 AM55 °FOvercast.3 mph90%30.13 "Hg10 mi
5:53 AM55 °FOvercast.3 mph93%30.15 "Hg10 mi
4:53 AM55 °FLight rain. Mostly cloudy.9 mph90%30.15 "Hg9 mi
3:53 AM55 °FOvercast.6 mph93%30.13 "Hg9 mi
2:53 AM55 °FLight rain. Partly cloudy.No wind93%30.14 "Hg10 mi
1:53 AM56 °FLight rain. Passing clouds.No wind90%30.14 "Hg10 mi
12:53 AM57 °FPartly cloudy.3 mph83%30.17 "Hg10 mi
11:53 PM
Dec 27
56 °FLight rain. Passing clouds.5 mph77%30.19 "Hg10 mi
10:53 PM57 °FPassing clouds.6 mph67%30.20 "Hg10 mi
9:53 PM59 °FPassing clouds.5 mph60%30.22 "Hg10 mi
8:53 PM60 °FPassing clouds.No wind56%30.23 "Hg10 mi
7:53 PM58 °FClear.No wind58%30.26 "Hg10 mi
6:53 PM59 °FClear.No wind56%30.26 "Hg10 mi
5:53 PM60 °FClear.3 mph56%30.22 "Hg10 mi
4:53 PM64 °FSunny.5 mph45%30.22 "Hg10 mi
3:53 PM64 °FSunny.3 mph45%30.23 "Hg10 mi
2:53 PM65 °FSunny.No wind44%30.22 "Hg10 mi
1:53 PM64 °FSunny.3 mph43%30.24 "Hg10 mi
12:53 PM62 °FSunny.3 mph46%30.27 "Hg10 mi
11:53 AM58 °FSunny.5 mph54%30.32 "Hg10 mi
10:53 AM55 °FSunny.3 mph59%30.34 "Hg10 mi
9:53 AM51 °FSunny.No wind71%30.35 "Hg10 mi
Weather by CustomWeather, © 2014

See weather overviewHow to use our weather pages